Wind_Speed
15 16 17 18 17 17 17 16 15 12 11 8 7 8 9 12 14 15 13 11 14 12 10 9 8 6 7 9 15 21 23 21 20 18 16 12 12 14 13 12 14 9 9 8 10
15 16 16 17 18 18 18 18 17 15 13 11 10 9 8 10 10 10 10 12 12 12 9 9 7 7 6 8 9 16 23 22 21 19 17 13 12 10 9 14 23 13 9 2 8
17 16 16 17 18 19 19 18 18 17 16 14 14 13 12 11 11 9 8 11 11 11 9 10 8 8 7 8 8 11 20 24 24 19 12 10 5 11 14 19 15 12 2 5 6
17 16 17 17 17 19 19 19 19 19 18 17 16 15 14 16 14 11 9 9 10 11 11 11 10 10 10 8 8 11 22 27 25 23 17 15 12 13 8 8 10 19 3 4 4
16 15 15 15 15 16 17 18 19 19 19 19 18 17 17 18 16 15 14 12 11 11 12 12 13 12 12 11 9 9 21 29 28 23 23 18 13 5 10 16 21 19 5 6 6
17 16 16 15 15 14 14 15 16 18 19 19 19 19 20 20 16 17 17 17 15 11 12 13 13 12 12 12 10 9 14 25 27 22 22 22 20 12 16 18 21 19 9 7 4
21 21 20 20 18 15 15 15 15 15 16 18 20 20 23 20 20 17 21 23 19 16 13 11 11 10 11 11 9 7 7 21 28 24 24 25 24 16 23 14 16 21 11 10 5
20 22 23 23 21 20 19 17 16 16 16 15 17 21 24 22 22 20 20 24 23 21 16 12 11 10 10 9 9 9 9 15 26 28 28 29 26 22 23 19 19 20 10 16 7
22 21 20 18 17 20 21 21 21 20 17 16 17 17 20 24 23 22 22 23 22 23 21 17 13 13 12 10 11 12 11 13 23 28 32 33 29 25 28 22 14 16 9 14 12
24 24 23 22 21 20 19 17 16 19 22 22 20 20 18 20 23 23 24 24 22 22 23 21 18 16 16 15 14 16 15 16 18 23 30 32 32 31 31 22 15 15 13 14 14
20 20 20 21 22 23 23 22 21 19 17 17 21 24 20 20 21 23 25 23 23 22 22 22 20 17 21 20 18 17 18 17 20 24 26 27 25 25 25 18 13 14 15 14 13
20 19 18 18 18 19 20 21 23 22 23 21 19 21 22 22 21 21 26 23 21 23 23 22 19 21 24 22 21 21 19 20 23 25 25 24 20 18 15 14 18 15 14 8 9
15 16 18 18 20 22 20 19 20 19 23 27 22 22 15 19 23 21 22 25 23 24 24 23 23 24 27 26 25 22 19 21 25 27 24 20 17 15 14 20 22 17 12 12 11
18 18 19 16 16 17 20 20 19 18 18 25 26 25 22 19 23 20 21 22 24 24 25 23 25 23 26 27 25 24 23 26 28 29 28 22 19 17 17 24 24 19 17 15 12
22 20 20 19 15 14 15 18 20 19 20 20 22 25 26 24 24 22 21 22 22 26 26 23 25 24 25 27 30 25 30 28 30 31 29 27 24 14 19 25 28 27 22 18 15
25 24 24 22 18 16 16 17 17 19 19 18 18 19 23 25 26 25 21 21 22 24 25 25 27 25 24 26 28 30 30 30 29 30 30 31 31 23 21 23 26 30 25 22 19
27 25 26 24 22 21 20 19 18 17 18 18 19 18 19 22 25 25 24 22 21 23 23 26 27 24 27 25 25 27 29 30 30 32 33 36 35 34 26 30 30 29 26 26 24
28 27 26 27 25 25 24 23 18 17 17 17 18 18 19 19 21 25 24 21 20 22 24 24 25 27 28 25 25 27 28 30 32 31 33 36 33 30 28 29 30 30 32 33 31
35 32 29 28 28 27 29 27 21 20 17 18 18 19 18 20 19 21 23 25 25 24 22 23 24 29 31 28 30 28 30 29 33 34 33 32 29 26 25 29 25 28 31 35 34
37 37 35 34 32 31 33 31 27 25 23 24 23 20 17 17 19 18 20 22 25 26 25 24 23 26 29 31 33 32 32 33 33 33 34 31 27 22 18 23 22 20 23 25 24
37 38 37 37 38 37 36 32 32 31 30 29 29 27 23 22 21 20 21 21 21 24 27 25 24 22 27 27 29 32 34 35 35 36 36 35 31 21 18 21 20 20 19 21 21
35 38 39 39 40 41 38 37 35 35 36 36 34 34 32 30 27 26 28 27 23 23 24 28 30 24 25 28 25 30 35 36 37 38 39 38 34 23 17 18 18 16 18 19 21
34 37 39 39 40 41 40 40 40 38 38 41 41 40 38 36 34 32 34 33 31 30 27 26 28 28 28 24 27 29 30 32 35 38 40 40 35 26 23 21 19 20 23 22 22
41 39 38 38 40 40 41 42 43 41 41 43 44 46 45 43 41 41 37 37 36 35 35 32 30 28 30 32 32 29 32 33 33 35 34 36 33 30 26 25 19 21 24 23 23
42 42 40 39 40 39 40 43 43 44 44 44 46 47 47 47 46 46 42 39 39 39 40 39 38 35 33 30 32 38 36 35 36 33 35 30 31 27 27 26 19 19 20 24 22
41 41 41 39 39 41 43 42 42 42 42 44 46 46 47 48 48 48 48 46 43 44 43 44 44 43 41 37 34 35 35 40 40 38 38 35 29 28 26 26 20 21 21 23 18
46 45 41 40 39 39 40 42 43 44 46 46 46 46 45 46 46 48 49 50 50 47 47 48 48 48 47 44 41 37 37 33 36 39 39 39 35 30 27 27 26 25 24 20 20
Wind_Direction
256 251 246 246 247 250 250 249 252 255 255 256 262 254 251 255 259 263 274 274 269 274 272 272 279 271 268 253 232 220 214 222 225 232 239 235 247 274 318 327 338 2 9 26 19
256 255 251 248 247 248 248 247 248 250 251 250 255 258 258 261 267 275 275 270 272 269 265 267 271 271 262 257 245 222 206 218 228 231 241 246 261 296 303 306 319 319 329 57 68
254 255 255 254 251 249 248 246 247 248 248 249 252 253 256 262 269 277 283 274 274 264 261 263 263 274 275 264 251 222 196 217 222 224 221 235 230 268 296 305 308 326 283 87 36
252 252 252 253 253 251 250 250 250 249 249 250 251 254 256 257 258 270 274 283 275 262 256 256 263 269 272 272 265 236 201 218 225 230 211 228 241 271 306 315 325 350 198 120 359
253 253 253 252 252 252 253 251 250 250 250 250 251 254 256 257 253 257 264 272 274 268 258 253 256 262 272 277 273 261 217 215 225 237 243 240 246 263 284 296 308 312 237 82 85
251 252 254 259 260 258 254 252 254 253 251 250 251 252 255 257 262 251 253 257 257 263 259 257 260 269 270 279 278 270 254 223 216 233 245 249 256 257 269 291 298 311 262 144 112
253 253 256 258 260 263 263 260 256 255 254 252 251 250 253 257 260 254 250 250 255 257 263 265 265 268 269 269 278 272 246 226 215 224 239 250 253 255 269 279 293 304 248 172 143
254 256 257 258 257 256 256 260 263 263 262 260 256 251 253 254 255 257 254 250 251 254 255 255 258 253 254 266 261 250 222 223 223 225 235 244 251 254 265 264 281 289 239 184 182
253 253 254 255 255 255 254 254 255 258 261 263 262 259 257 254 254 254 256 254 250 252 253 249 250 253 250 252 253 249 231 230 230 233 236 240 247 247 258 270 286 284 229 194 179
257 258 259 260 261 261 262 262 260 259 258 259 259 262 262 260 255 253 254 257 251 246 251 251 248 248 250 243 249 244 244 236 240 243 242 245 246 248 254 271 273 270 203 183 178
260 260 260 262 264 263 261 262 261 261 263 266 259 256 257 259 261 253 253 254 255 251 243 244 248 244 243 241 241 251 244 243 238 247 249 255 260 255 259 269 255 229 205 194 187
260 264 267 270 271 270 268 265 263 259 262 258 263 263 253 253 260 256 252 250 251 249 247 242 239 238 243 242 242 245 248 241 248 250 259 261 269 266 264 231 248 252 223 223 210
257 258 260 265 271 271 273 276 273 265 253 259 253 262 262 252 252 255 257 251 248 246 245 244 236 232 238 239 239 242 247 237 247 255 262 261 261 258 221 232 246 259 241 254 259
259 263 267 266 274 274 267 267 271 274 267 260 254 252 257 256 262 255 262 257 251 247 246 244 246 238 237 238 241 242 242 234 242 254 253 262 256 248 227 239 247 254 248 263 259
260 263 267 267 273 276 274 270 264 264 268 265 261 254 256 253 259 262 257 264 258 251 249 243 243 238 239 239 240 235 237 237 241 251 258 258 266 250 245 239 256 265 256 255 258
259 259 262 262 263 264 271 275 271 262 264 265 266 263 251 251 251 258 260 261 262 262 257 252 252 250 244 241 243 241 244 243 243 249 261 256 262 270 254 252 261 259 253 253 262
260 256 258 258 257 259 261 266 272 269 264 260 261 260 256 249 250 250 254 257 258 261 259 247 248 248 247 244 247 249 246 250 247 245 252 256 258 264 262 260 258 261 263 262 263
259 259 257 261 258 257 256 259 264 264 258 257 251 251 250 251 249 248 246 248 252 255 256 256 247 244 246 245 244 243 242 245 251 249 249 255 258 262 265 260 263 259 261 266 270
257 256 254 255 258 257 254 252 250 254 249 246 243 244 250 253 248 250 251 246 245 248 252 257 257 251 247 245 244 245 246 247 250 255 257 258 262 264 271 274 267 264 266 266 270
255 254 253 253 253 255 255 252 248 247 246 245 244 243 239 246 254 253 256 253 251 249 250 253 256 260 255 249 246 246 248 248 249 253 258 261 259 268 267 271 274 261 263 268 269
256 256 253 251 252 251 253 254 249 243 244 244 248 249 246 242 248 256 258 258 256 253 249 244 246 249 258 259 255 253 253 253 253 255 259 264 264 260 262 275 282 272 261 269 271
260 258 256 253 253 253 253 253 252 248 246 244 244 250 252 250 249 253 256 260 259 259 256 254 249 235 245 256 258 260 257 257 257 262 264 266 268 267 263 264 283 282 263 263 263
266 262 258 257 256 255 254 253 253 251 248 247 248 247 250 252 254 254 259 260 260 260 256 259 259 251 242 238 251 256 261 265 263 262 263 267 272 274 264 258 260 273 279 265 263
261 263 261 258 257 256 255 255 254 253 253 251 248 249 249 250 250 254 252 259 263 263 263 259 259 257 251 248 244 244 255 261 264 266 269 268 273 274 266 261 249 251 264 270 267
262 259 259 259 259 256 255 256 253 255 254 253 254 252 250 249 249 250 251 251 255 260 264 262 260 254 254 253 251 248 242 248 256 262 266 273 272 272 273 264 251 238 262 279 268
259 260 256 255 256 256 256 257 254 254 254 256 256 255 254 252 250 248 247 247 248 254 255 259 262 259 255 254 251 250 248 243 249 253 260 266 266 277 276 269 252 246 245 264 279
257 255 256 255 257 260 259 256 255 254 254 256 257 257 256 254 253 251 250 249 248 248 254 257 258 260 261 260 257 250 248 249 246 249 256 259 264 268 270 270 266 256 250 255 270
Height
5884 5885 5886 5888 5889 5891 5892 5894 5895 5896 5897 5897 5897 5898 5898 5899 5899 5899 5900 5901 5901 5902 5902 5903 5904 5906 5907 5908 5910 5913 5918 5920 5919 5922 5923 5925 5926 5928 5930 5928 5926 5924 5921 5921 5921
5881 5882 5883 5884 5886 5888 5889 5891 5892 5893 5894 5895 5896 5896 5896 5897 5897 5897 5898 5898 5899 5900 5901 5902 5902 5904 5905 5906 5908 5909 5914 5917 5917 5919 5921 5923 5925 5927 5929 5928 5924 5922 5920 5920 5919
5879 5879 5880 5881 5883 5884 5886 5887 5889 5890 5891 5892 5893 5894 5894 5894 5895 5895 5895 5896 5897 5898 5899 5900 5901 5902 5903 5904 5905 5907 5911 5913 5914 5916 5919 5921 5924 5925 5927 5925 5923 5922 5920 5920 5918
5875 5876 5877 5878 5879 5881 5883 5884 5885 5886 5888 5889 5890 5891 5891 5892 5894 5893 5894 5894 5894 5895 5896 5898 5899 5900 5901 5902 5903 5905 5906 5908 5912 5914 5918 5919 5922 5922 5925 5923 5922 5922 5920 5919 5918
5872 5872 5874 5875 5876 5877 5879 5880 5880 5882 5884 5885 5886 5887 5888 5888 5891 5891 5891 5892 5892 5893 5894 5896 5897 5898 5899 5900 5901 5902 5902 5904 5908 5912 5915 5917 5919 5921 5922 5921 5922 5921 5920 5919 5917
5869 5870 5871 5872 5874 5874 5875 5875 5876 5878 5879 5880 5882 5883 5884 5885 5887 5888 5888 5888 5889 5891 5891 5893 5894 5896 5897 5898 5899 5900 5900 5901 5906 5909 5911 5913 5915 5919 5919 5920 5920 5920 5919 5918 5917
5866 5867 5868 5869 5870 5871 5871 5872 5873 5874 5875 5876 5877 5879 5879 5883 5883 5885 5885 5885 5887 5888 5889 5891 5892 5894 5895 5896 5897 5898 5898 5899 5902 5905 5907 5908 5911 5915 5914 5917 5918 5917 5917 5917 5916
5861 5862 5863 5864 5866 5866 5866 5868 5869 5870 5871 5872 5873 5874 5874 5877 5879 5880 5881 5881 5884 5885 5887 5889 5890 5891 5892 5894 5895 5896 5896 5897 5898 5900 5902 5904 5908 5911 5910 5913 5915 5915 5915 5916 5916
5857 5858 5859 5860 5861 5862 5863 5864 5865 5866 5867 5868 5869 5870 5871 5872 5874 5876 5876 5877 5879 5881 5884 5887 5888 5889 5890 5891 5893 5893 5894 5894 5894 5896 5897 5899 5902 5907 5906 5908 5910 5912 5913 5913 5913
5851 5852 5854 5855 5856 5857 5858 5860 5861 5862 5863 5864 5865 5867 5867 5868 5869 5870 5872 5874 5875 5877 5880 5883 5885 5887 5888 5888 5890 5890 5891 5892 5892 5893 5892 5894 5897 5901 5902 5904 5907 5908 5909 5909 5910
5846 5847 5848 5849 5851 5852 5854 5855 5858 5860 5859 5860 5861 5861 5863 5864 5864 5866 5866 5869 5871 5874 5876 5878 5881 5884 5883 5884 5885 5887 5887 5889 5888 5887 5888 5889 5892 5895 5898 5902 5903 5904 5906 5906 5906
5841 5841 5843 5844 5845 5846 5847 5849 5851 5854 5854 5855 5856 5854 5858 5860 5860 5861 5862 5865 5867 5868 5871 5874 5876 5878 5878 5880 5881 5882 5884 5886 5885 5883 5884 5886 5889 5892 5894 5898 5900 5901 5902 5902 5903
5835 5837 5838 5840 5840 5841 5841 5843 5844 5847 5849 5848 5852 5851 5854 5855 5854 5856 5859 5860 5862 5864 5865 5868 5870 5871 5873 5875 5876 5878 5880 5881 5882 5879 5880 5883 5887 5890 5892 5895 5896 5898 5898 5899 5899
5830 5832 5833 5835 5836 5836 5837 5839 5839 5841 5843 5843 5845 5847 5850 5851 5850 5855 5854 5856 5858 5859 5860 5863 5864 5867 5868 5870 5873 5874 5875 5875 5876 5875 5877 5879 5883 5886 5889 5891 5892 5894 5895 5895 5895
5825 5826 5827 5828 5830 5831 5832 5833 5835 5836 5838 5839 5839 5841 5843 5847 5848 5849 5851 5851 5853 5854 5856 5860 5859 5861 5864 5866 5867 5870 5867 5870 5871 5872 5874 5877 5879 5885 5886 5889 5889 5890 5891 5891 5891
5820 5821 5822 5823 5825 5826 5826 5827 5830 5833 5833 5834 5834 5835 5838 5840 5841 5843 5846 5848 5849 5850 5852 5855 5855 5858 5859 5860 5862 5864 5864 5866 5868 5870 5871 5874 5874 5877 5882 5884 5884 5884 5886 5886 5887
5813 5815 5816 5817 5820 5821 5821 5823 5825 5826 5828 5830 5830 5830 5832 5834 5835 5838 5840 5842 5844 5846 5847 5848 5850 5852 5853 5855 5857 5859 5861 5862 5865 5866 5868 5868 5870 5871 5875 5877 5879 5879 5880 5880 5881
5805 5808 5810 5810 5813 5814 5816 5818 5820 5821 5822 5823 5824 5825 5827 5828 5830 5832 5834 5836 5838 5840 5841 5843 5846 5846 5848 5850 5851 5851 5854 5856 5857 5861 5863 5861 5863 5867 5868 5870 5871 5872 5872 5872 5874
5797 5800 5802 5803 5805 5807 5809 5811 5815 5815 5818 5818 5819 5820 5822 5824 5826 5826 5829 5831 5832 5834 5837 5838 5841 5840 5842 5844 5845 5846 5847 5851 5851 5852 5855 5857 5859 5861 5862 5860 5864 5864 5864 5864 5865
5787 5789 5793 5795 5796 5798 5800 5804 5807 5809 5811 5812 5813 5816 5817 5819 5820 5822 5823 5825 5827 5829 5830 5833 5836 5836 5837 5838 5839 5841 5842 5844 5845 5846 5847 5849 5853 5855 5857 5856 5856 5857 5857 5857 5859
5778 5779 5783 5785 5787 5789 5791 5796 5799 5802 5803 5805 5807 5809 5812 5813 5815 5817 5817 5818 5820 5823 5824 5826 5829 5833 5831 5833 5835 5836 5836 5838 5839 5840 5841 5842 5846 5852 5853 5852 5852 5852 5851 5852 5853
5768 5770 5772 5775 5778 5779 5783 5786 5789 5792 5796 5796 5798 5800 5802 5806 5808 5810 5811 5812 5815 5815 5818 5819 5821 5826 5826 5826 5829 5829 5830 5832 5832 5835 5835 5836 5840 5847 5849 5848 5847 5847 5847 5847 5848
5758 5760 5761 5764 5767 5770 5773 5775 5777 5781 5785 5788 5790 5792 5794 5797 5800 5802 5802 5805 5808 5810 5810 5812 5814 5818 5819 5822 5821 5822 5824 5825 5826 5827 5827 5829 5834 5840 5842 5842 5842 5841 5841 5842 5842
5748 5750 5753 5753 5756 5758 5761 5764 5766 5770 5773 5775 5778 5782 5784 5787 5790 5790 5795 5796 5798 5801 5804 5806 5807 5809 5812 5815 5816 5817 5817 5818 5819 5819 5822 5821 5826 5831 5834 5834 5834 5835 5835 5835 5835
5735 5738 5742 5744 5746 5747 5749 5752 5755 5758 5761 5764 5765 5769 5772 5775 5778 5780 5785 5788 5789 5790 5791 5795 5797 5799 5802 5805 5807 5809 5810 5810 5810 5812 5812 5818 5816 5822 5824 5827 5829 5828 5830 5830 5829
5724 5726 5729 5732 5734 5736 5737 5742 5743 5745 5749 5752 5754 5756 5759 5762 5766 5769 5772 5775 5779 5780 5781 5782 5784 5787 5790 5793 5796 5798 5802 5803 5803 5805 5805 5807 5811 5813 5816 5817 5822 5823 5823 5825 5826
5711 5714 5716 5718 5721 5724 5726 5728 5731 5732 5735 5739 5742 5743 5746 5749 5752 5755 5759 5763 5767 5770 5771 5772 5773 5776 5778 5783 5785 5790 5790 5794 5797 5798 5801 5800 5804 5806 5808 5809 5812 5815 5817 5818 5819